DateTimeUTC,F1_A11,F1_S11,BsB_S11,BsG_S11,BsR_S11,BbsB_S11,BbsG_S11,BbsR_S11,BaB_A11,BaG_A11,BaR_A11,Tu_S11,T_S11,Uu_S11,U_S11,P_S11,T1_A11
2021-08-04T21:00:00Z,00000200,20000000,,,,,,,-000.10,-000.30,0000.13,19.5,26.2,07.2,04.8,0671.6,31.1
2021-08-04T21:01:00Z,00000200,20000000,,,,,,,0000.35,0000.63,-000.33,19.5,26.2,07.2,04.8,0671.6,31.1
2021-08-04T21:02:00Z,00000200,20000000,,,,,,,0000.07,0000.20,0000.58,19.4,26.2,07.2,04.8,0671.6,31.1
2021-08-04T21:03:00Z,00000200,60000000,,,,,,,0001.17,0000.97,0000.97,19.4,26.2,07.3,04.8,0671.6,31.1
2021-08-04T21:04:00Z,00000200,40000000,0003.83,0003.46,0001.80,0000.17,0000.25,0000.13,0001.23,0000.67,0001.00,19.5,26.0,07.6,05.1,0672.5,31.1
2021-08-04T21:05:00Z,00000200,00000000,0004.03,0003.03,0001.63,0000.15,0000.44,-000.07,0001.20,0001.42,0000.39,19.6,26.0,07.6,05.2,0672.6,31.1
2021-08-04T21:06:00Z,00000200,00000000,0005.23,0003.14,0001.89,0000.24,0000.36,0000.24,0000.86,0000.60,0000.93,19.6,26.0,07.5,05.1,0672.6,31.1
2021-08-04T21:07:00Z,00000200,00000000,0004.50,0003.37,0001.71,0000.17,0000.21,-000.25,0000.92,0000.96,0000.27,19.6,26.0,07.6,05.2,0672.6,31.1
2021-08-04T21:08:00Z,00000200,00000000,0004.42,0002.77,0002.25,0000.66,0000.43,0000.45,0001.20,0001.15,0001.02,19.6,25.9,07.4,05.0,0672.6,31.1
2021-08-04T21:09:00Z,00000200,00000000,0004.90,0003.23,0001.96,0000.77,0000.04,0000.41,0001.13,0000.91,0000.76,19.6,25.9,07.4,05.0,0672.6,31.1
2021-08-04T21:10:00Z,00000200,00000000,0004.95,0003.26,0001.86,0000.41,0000.43,0000.28,0001.13,0000.94,0000.42,19.6,25.9,07.3,04.9,0672.6,31.1
2021-08-04T21:11:00Z,00000200,00000000,0005.15,0003.82,0002.46,0000.25,0000.64,0000.50,0001.06,0000.95,0000.66,19.6,25.9,07.3,04.9,0672.6,31.1
2021-08-04T21:12:00Z,00000200,00000000,0004.74,0003.38,0001.95,0000.16,0000.57,0000.33,0000.99,0001.27,0000.95,19.6,25.9,07.2,04.9,0672.6,31.1
2021-08-04T21:13:00Z,00000200,00000000,0004.72,0003.35,0002.24,0001.15,0000.48,0000.10,0001.22,0001.20,0001.33,19.6,25.9,07.2,04.9,0672.6,31.1
2021-08-04T21:14:00Z,00000200,00000000,0004.57,0003.49,0002.04,0000.12,0000.46,0000.24,0001.71,0001.27,0000.49,19.6,25.9,07.1,04.9,0672.6,31.1
2021-08-04T21:15:00Z,00000200,00000000,0003.69,0003.63,0002.24,0000.52,0000.42,0000.15,0000.97,0000.90,0000.94,19.6,25.9,07.3,05.0,0672.5,31.1
2021-08-04T21:16:00Z,00000200,00000000,0004.01,0003.61,0001.99,0000.77,0000.29,0000.07,0001.78,0001.51,0000.87,19.6,25.9,07.2,04.9,0672.5,31.1
2021-08-04T21:17:00Z,00000200,00000000,0005.24,0003.15,0001.95,0000.39,0000.33,0000.36,0001.16,0000.99,0001.12,19.6,25.9,07.2,04.9,0672.5,31.1
2021-08-04T21:18:00Z,00000200,00000000,0004.13,0003.38,0001.98,0000.45,0000.23,0000.08,0001.18,0001.25,0000.84,19.6,25.9,07.2,04.9,0672.5,31.1
2021-08-04T21:19:00Z,00000200,00000000,0004.79,0002.98,0001.80,0000.80,0000.35,0000.38,0002.01,0001.78,0001.40,19.6,25.9,07.2,04.9,0672.6,31.1
2021-08-04T21:20:00Z,00000200,00000000,0004.17,0002.67,0001.76,0000.52,0000.38,-000.20,0001.00,0001.31,0001.23,19.6,25.9,07.7,05.2,0672.6,31.1
2021-08-04T21:21:00Z,00000200,00000000,0003.80,0002.63,0001.58,0000.65,0000.29,0000.13,0001.10,0000.87,0000.84,19.6,25.9,07.7,05.3,0672.6,31.1
2021-08-04T21:22:00Z,00000200,00000000,0004.20,0002.83,0001.52,0000.38,0000.50,0000.08,0001.16,0000.68,0000.69,19.6,25.9,07.8,05.3,0672.5,31.1
2021-08-04T21:23:00Z,00000200,00000000,0003.54,0002.87,0002.26,-000.14,0000.46,0000.44,0000.72,0000.98,0000.32,19.6,25.9,07.7,05.2,0672.5,31.1
2021-08-04T21:24:00Z,00000200,00000000,0005.05,0003.15,0002.20,0000.63,0000.42,0000.44,0001.18,0000.91,0000.68,19.6,25.9,07.6,05.2,0672.5,31.1
2021-08-04T21:25:00Z,00000200,00000000,0004.77,0003.47,0001.84,0000.73,0000.18,-000.26,0000.93,0001.15,0000.59,19.6,25.8,07.4,05.0,0672.5,31.1
2021-08-04T21:26:00Z,00000200,00000000,0004.94,0003.04,0002.29,0000.98,0000.48,0000.56,0001.19,0000.70,0000.77,19.5,25.8,07.3,05.0,0672.5,31.1
2021-08-04T21:27:00Z,00000200,00000000,0005.11,0003.63,0002.01,0000.57,0000.26,0000.11,0000.93,0001.28,0000.96,19.6,25.8,07.3,05.0,0672.5,31.1
2021-08-04T21:28:00Z,00000200,00000000,0004.65,0003.22,0002.35,0000.75,0000.65,0000.22,0001.61,0001.15,0000.75,19.5,25.8,07.2,04.9,0672.5,31.1
2021-08-04T21:29:00Z,00000200,00000000,0005.01,0003.38,0001.94,0000.88,0000.29,0000.28,0000.88,0000.81,0001.04,19.6,25.8,07.4,05.0,0672.5,31.1
2021-08-04T21:30:00Z,00000200,00000000,0004.00,0003.67,0002.09,0000.44,0000.55,0000.36,0001.49,0001.32,0000.69,19.5,25.8,07.3,05.0,0672.5,31.1
2021-08-04T21:31:00Z,00000200,00000000,0004.50,0003.42,0002.11,0000.03,0000.36,0000.15,0001.28,0001.29,0000.96,19.6,25.8,07.2,04.9,0672.5,31.1
2021-08-04T21:32:00Z,00000200,00000000,0004.93,0003.48,0002.09,0000.14,0000.28,0000.27,0001.65,0001.38,0001.07,19.5,25.8,07.3,05.0,0672.5,31.1
2021-08-04T21:33:00Z,00000200,00000000,0005.05,0002.80,0001.50,0000.04,0000.26,0000.19,0001.09,0001.13,0000.81,19.5,25.8,07.6,05.2,0672.5,31.1
2021-08-04T21:34:00Z,00000200,00000000,0005.04,0003.53,0002.32,0000.66,0000.19,0000.47,0000.74,0000.57,0000.79,19.5,25.8,07.5,05.1,0672.5,31.1
2021-08-04T21:35:00Z,00000200,00000000,0003.85,0003.02,0002.40,0000.18,0000.29,0000.36,0001.90,0001.72,0001.16,19.5,25.8,07.5,05.1,0672.5,31.1
2021-08-04T21:36:00Z,00000200,00000000,0003.25,0002.92,0001.48,0000.50,0000.51,0000.11,0001.30,0001.19,0001.28,19.5,25.8,07.7,05.2,0672.5,31.1
2021-08-04T21:37:00Z,00000200,00000000,0004.45,0002.48,0001.51,0000.49,0000.02,0000.40,0001.15,0001.16,0000.45,19.5,25.8,07.9,05.4,0672.5,31.1
2021-08-04T21:38:00Z,00000200,00000000,0005.06,0002.78,0001.91,0000.72,0000.18,0000.14,0000.87,0000.57,0000.43,19.5,25.8,07.8,05.3,0672.5,31.1
2021-08-04T21:39:00Z,00000200,00000000,0004.54,0003.07,0001.58,0000.23,0000.36,0000.16,0000.40,0000.77,0000.73,19.5,25.8,07.7,05.2,0672.5,31.1
2021-08-04T21:40:00Z,00000200,00000000,0004.42,0003.25,0002.17,0000.44,0000.56,0000.59,0001.33,0001.00,0000.45,19.5,25.8,07.6,05.2,0672.5,31.1
2021-08-04T21:41:00Z,00000200,00000000,0004.38,0003.26,0001.74,0000.69,0000.66,0000.25,0001.08,0001.04,0001.28,19.5,25.8,07.6,05.2,0672.5,31.1
2021-08-04T21:42:00Z,00000200,00000000,0003.77,0003.19,0001.81,-000.24,0000.58,0000.19,0001.42,0001.57,0000.74,19.5,25.8,07.6,05.2,0672.5,31.1
2021-08-04T21:43:00Z,00000200,00000000,0004.30,0003.05,0001.88,0000.59,0000.48,0000.32,0001.32,0000.74,0000.77,19.5,25.8,07.5,05.1,0672.5,31.1
2021-08-04T21:44:00Z,00000200,00000000,0003.66,0003.70,0002.17,0000.28,0000.54,0000.32,0000.88,0000.96,0000.72,19.5,25.8,07.5,05.1,0672.5,31.1
2021-08-04T21:45:00Z,00000200,00000000,0004.98,0003.68,0001.73,0000.44,0000.19,0000.11,0001.30,0001.19,0000.87,19.5,25.8,07.5,05.1,0672.5,31.1
2021-08-04T21:46:00Z,00000200,00000000,0004.82,0003.15,0001.94,0000.64,0000.28,0000.29,0001.31,0000.94,0000.54,19.4,25.7,07.5,05.1,0672.5,31.1
2021-08-04T21:47:00Z,00000200,00000000,0003.92,0002.82,0002.50,0000.69,0000.65,0000.47,0001.29,0001.48,0001.59,19.4,25.8,07.5,05.1,0672.5,31.1
2021-08-04T21:48:00Z,00000200,00000000,0004.57,0003.02,0002.27,0001.11,0000.37,0000.50,0001.34,0001.19,0000.93,19.4,25.7,07.7,05.2,0672.5,31.1
2021-08-04T21:49:00Z,00000200,00000000,0004.37,0003.25,0002.38,0000.16,0000.26,0000.60,0000.91,0001.24,0000.23,19.4,25.7,07.6,05.2,0672.4,31.1
2021-08-04T21:50:00Z,00000200,00000000,0004.68,0003.19,0001.79,0000.73,0000.11,-000.18,0001.21,0000.67,0001.05,19.4,25.7,07.7,05.2,0672.4,31.1
2021-08-04T21:51:00Z,00000200,00000000,0004.23,0002.99,0002.28,0000.57,0000.14,0000.11,0001.44,0001.09,0000.55,19.4,25.7,07.6,05.2,0672.4,31.1
2021-08-04T21:52:00Z,00000200,00000000,0003.70,0003.27,0001.81,0000.64,0000.28,0000.38,0000.77,0001.09,0001.50,19.4,25.7,07.5,05.1,0672.4,31.1
2021-08-04T21:53:00Z,00000200,00000000,0004.85,0003.21,0002.03,0000.50,0000.19,0000.26,0001.61,0001.33,0000.67,19.4,25.7,07.5,05.2,0672.4,31.1
2021-08-04T21:54:00Z,00000200,00000000,0004.37,0003.00,0001.95,0000.79,0000.44,0000.29,0000.67,0000.43,0000.42,19.4,25.7,07.6,05.2,0672.4,31.1
2021-08-04T21:55:00Z,00000200,00000000,0003.89,0003.26,0002.27,0000.36,0000.50,0000.32,0001.39,0001.52,0001.35,19.4,25.7,07.5,05.1,0672.4,31.1
2021-08-04T21:56:00Z,00000200,00000000,0004.11,0003.13,0002.28,0000.47,0000.07,0000.56,0001.15,0000.76,0000.53,19.4,25.7,07.6,05.2,0672.4,31.1
2021-08-04T21:57:00Z,00000200,40000000,,,,,,,0000.22,0000.58,0000.20,19.4,25.8,08.0,05.4,0672.4,31.1
2021-08-04T21:58:00Z,00000200,60000000,,,,,,,0000.13,-000.15,-000.13,19.2,25.8,07.5,05.0,0671.4,31.1
2021-08-04T21:59:00Z,00000200,20000000,,,,,,,-000.11,0000.19,-000.23,19.1,25.9,07.6,05.0,0671.4,31.1
